Weather History for 71508 - February, 2014

Change the Weather History Date:

Thursday, February 13, 2014

  Actual Average Record
Temperature  
Mean Temperature 22 °F -  
Max Temperature 29 °F - - ()
Min Temperature 15 °F - - ()
Degree Days  
Heating Degree Days 43    
Moisture  
Dew Point 13 °F    
Average Humidity 65    
Maximum Humidity 77    
Minimum Humidity 43    
Precipitation  
Precipitation 0.55 in - - ()
Sea Level Pressure  
Sea Level Pressure 29.95 in    
Wind  
Wind Speed - ()    
Max Wind Speed -    
Max Gust Speed -    
T = Trace of Precipitation, MM = Missing Value Source: Averaged Metar Reports

Daily Weather History Graph

Daily Weather History Graph

Search for Another Location

Airport or City:

Trip Planner

Search our weather history database for the weather conditions in past years. The results will help you decide how hot, cold, wet, or windy it might be!

Date:

Astronomy

Feb. 13, 2014 Rise Set
Actual Time 7:19 AM EST 5:45 PM EST
Civil Twilight 6:49 AM EST 6:14 PM EST
Nautical Twilight 6:15 AM EST 6:48 PM EST
Astronomical Twilight 5:42 AM EST 7:21 PM EST
Moon 4:52 PM EST (2/13) 6:11 AM EST (2/13)
Length of Visible Light 11h 25m
Length of Day
10h 26m
Waxing Gibbous, 98% of the Moon is Illuminated
Feb 13
Waxing Gibbous
Feb 14
Full
Feb 22
Last Quarter
Mar 1
New
Mar 8
First Quarter

Hourly Weather History & Observations

Time (EST) Temp. Dew Point Humidity Pressure Visibility Wind Dir Wind Speed Gust Speed Precip Events Conditions
12:00 AM 17.4 °F 10.8 °F 75% 30.19 in - North - - N/A   Unknown
1:00 AM 18 °F 10 °F 60% 30.16 in - Calm Calm - -  
1:00 AM 17.8 °F 10.0 °F 72% 30.16 in - North - - N/A   Unknown
2:00 AM 17.2 °F 10.0 °F 73% 30.14 in - North - - N/A   Unknown
3:00 AM 18.5 °F 10.8 °F 72% 30.13 in - North - - N/A   Unknown
4:00 AM 17.4 °F 11.3 °F 77% 30.15 in - North - - N/A   Unknown
5:00 AM 17.2 °F 10.6 °F 75% 30.14 in - North - - N/A   Unknown
6:00 AM 17.4 °F 10.6 °F 75% 30.11 in - North - - N/A   Unknown
7:00 AM 17 °F 11 °F 66% 30.09 in - Calm Calm - -  
7:00 AM 17.4 °F 10.6 °F 75% 30.09 in - North - - N/A   Unknown
8:00 AM 18.3 °F 11.7 °F 75% 30.08 in - North - - N/A   Unknown
9:00 AM 21.6 °F 12.2 °F 67% 30.06 in - North - - N/A   Unknown
10:00 AM 24.4 °F 14.2 °F 65% 30.03 in - North - - N/A   Unknown
11:00 AM 27.0 °F 15.3 °F 61% 30.02 in - North - - N/A   Unknown
12:00 PM 29.3 °F 18.1 °F 63% 29.98 in - North - - N/A   Unknown
1:00 PM 27 °F 18 °F 57% 29.94 in - Calm Calm - -  
1:00 PM 27.3 °F 18.0 °F 68% 29.94 in - North - - N/A   Unknown
3:00 PM 27.0 °F 16.9 °F 66% 29.86 in - North - - N/A   Unknown
4:00 PM 26.2 °F 17.1 °F 68% 29.82 in - North - - N/A   Unknown
5:00 PM 26.4 °F 14.7 °F 61% 29.79 in - North - - N/A   Unknown
6:00 PM 25.9 °F 13.6 °F 60% 29.76 in - North - - N/A   Unknown
7:00 PM 26 °F 12 °F 43% 29.74 in - Calm Calm - -  
7:00 PM 26.1 °F 12.4 °F 56% 29.74 in - North - - N/A   Unknown
8:00 PM 25.3 °F 12.2 °F 58% 29.72 in - North - - N/A   Unknown
9:00 PM 27.5 °F 12.7 °F 54% 29.68 in - North - - N/A   Unknown
10:00 PM 27.5 °F 13.3 °F 55% 29.65 in - North - - N/A   Unknown
11:00 PM 26.2 °F 13.3 °F 58% 29.61 in - North - - N/A   Unknown